Location: Goodmans Corner
(38.2049°N, 120.9872°W)
Time: 14:38:31
(UTC+00:00)

Envisat - Pass Details

Date: 26 October 2019
Orbit: 764 x 766 km, 98.1° (Epoch: 22 November)

Event Time Altitude Azimuth Distance (km) Brightness Sun altitude
Rises 02:02:23 0° 163° (SSE) 3,218 6.1 -10.4°
Reaches altitude 10° 02:04:40 10° 162° (SSE) 2,296 5.4 -10.8°
Maximum altitude 02:09:44 80° 76° (ENE) 782 2.9 -11.8°
Drops below altitude 10° 02:14:50 10° 350° (N) 2,310 5.5 -12.8°
Sets 02:17:08 0° 349° (N) 3,240 6.3 -13.2°
